,,,PA_Meas_PMT16A,,PR_Meas_QMR101_102,,RH_Meas_QMH101,,SR_Meas_QMS101,,TA_Meas_QMH101,,GenWind,,GenWind,
date,time,status,PA,status,PR,status,RH,status,SR,status,TA,status,DirAvg,status,SpdAvg,
2012-03-13, 00:00:04,VALID,1009.84,VALID,0,VALID,102.612,VALID,0,VALID,24.1617,VALID,64,VALID,0.475391,
2012-03-13, 00:01:04,VALID,1009.79,VALID,0,VALID,102.437,VALID,0,VALID,24.1422,VALID,39,VALID,0.396875,
2012-03-13, 00:02:04,VALID,1009.76,VALID,0,VALID,102.559,VALID,0,VALID,24.1032,VALID,39,VALID,0,
2012-03-13, 00:03:04,VALID,1009.75,VALID,0,VALID,102.62,VALID,0,VALID,24.1032,VALID,39,VALID,0.163672,
2012-03-13, 00:04:04,VALID,1009.72,VALID,0,VALID,102.505,VALID,0,VALID,24.0837,VALID,39,VALID,0.0195313,
2012-03-13, 00:05:04,VALID,1009.7,VALID,0,VALID,102.589,VALID,0,VALID,24.0643,VALID,39,VALID,0,
2012-03-13, 00:06:04,VALID,1009.68,VALID,0,VALID,102.772,VALID,0,VALID,24.0837,VALID,39,VALID,0.0761719,
2012-03-13, 00:07:04,VALID,1009.65,VALID,0,VALID,102.605,VALID,0,VALID,24.0448,VALID,42,VALID,0.616406,
2012-03-13, 00:08:04,VALID,1009.64,VALID,0,VALID,102.521,VALID,0,VALID,24.0235,VALID,93,VALID,0.473828,
2012-03-13, 00:09:04,VALID,1009.6,VALID,0,VALID,102.353,VALID,0,VALID,24.0253,VALID,93,VALID,0.454688,
2012-03-13, 00:10:04,VALID,1009.58,VALID,0,VALID,102.315,VALID,0.112112,VALID,24.0235,VALID,49,VALID,0.761328,
2012-03-13, 00:11:04,VALID,1009.57,VALID,0,VALID,102.46,VALID,0.112112,VALID,24.0235,VALID,49,VALID,0.277734,
2012-03-13, 00:12:04,VALID,1009.54,VALID,0,VALID,102.437,VALID,0,VALID,24.0235,VALID,49,VALID,0.205859,
2012-03-13, 00:13:04,VALID,1009.52,VALID,0,VALID,102.467,VALID,0.112112,VALID,24.0235,VALID,103,VALID,0.127734,
2012-03-13, 00:14:04,VALID,1009.48,VALID,0,VALID,102.216,VALID,0.112112,VALID,24.0022,VALID,103,VALID,0.399219,
2012-03-13, 00:15:04,VALID,1009.49,VALID,0,VALID,102.101,VALID,0.112112,VALID,24.0235,VALID,103,VALID,0.462891,
2012-03-13, 00:16:04,VALID,1009.47,VALID,0,VALID,102.116,VALID,0.112112,VALID,24.0235,VALID,124,VALID,0.562109,
2012-03-13, 00:17:04,VALID,1009.44,VALID,0,VALID,101.819,VALID,0,VALID,24.0235,VALID,139,VALID,0.43125,
2012-03-13, 00:18:04,VALID,1009.45,VALID,0,VALID,101.918,VALID,0.112112,VALID,24.004,VALID,139,VALID,0.273828,
2012-03-13, 00:19:04,VALID,1009.45,VALID,0,VALID,101.728,VALID,0.112112,VALID,23.9845,VALID,139,VALID,0.735937,
2012-03-13, 00:20:04,VALID,1009.42,VALID,0,VALID,101.743,VALID,0.112112,VALID,23.9845,VALID,139,VALID,0.465625,
2012-03-13, 00:21:04,VALID,1009.41,VALID,0,VALID,102.048,VALID,0,VALID,23.9668,VALID,139,VALID,0.508984,
2012-03-13, 00:22:04,VALID,1009.41,VALID,0,VALID,102.246,VALID,0,VALID,23.9473,VALID,139,VALID,0.497266,
2012-03-13, 00:23:04,VALID,1009.41,VALID,0,VALID,102.452,VALID,0,VALID,23.9473,VALID,139,VALID,0.479297,
2012-03-13, 00:24:04,VALID,1009.42,VALID,0,VALID,102.627,VALID,0,VALID,23.9278,VALID,139,VALID,0.388281,
2012-03-13, 00:25:04,VALID,1009.43,VALID,0,VALID,102.749,VALID,0,VALID,23.9297,VALID,139,VALID,0.301172,
2012-03-13, 00:26:04,VALID,1009.44,VALID,0,VALID,102.841,VALID,0,VALID,23.9084,VALID,139,VALID,0.514844,
2012-03-13, 00:27:04,VALID,1009.45,VALID,0,VALID,102.963,VALID,0,VALID,23.8889,VALID,139,VALID,0.559766,
2012-03-13, 00:28:04,VALID,1009.41,VALID,0,VALID,103.161,VALID,0,VALID,23.8694,VALID,139,VALID,0.351172,
2012-03-13, 00:29:04,VALID,1009.4,VALID,0,VALID,103.283,VALID,0,VALID,23.8694,VALID,139,VALID,0.230469,
2012-03-13, 00:30:04,VALID,1009.4,VALID,0,VALID,103.413,VALID,0,VALID,23.8499,VALID,139,VALID,0.209766,
2012-03-13, 00:31:04,VALID,1009.43,VALID,0,VALID,103.542,VALID,0,VALID,23.8499,VALID,139,VALID,0.417969,
2012-03-13, 00:32:04,VALID,1009.4,VALID,0,VALID,103.664,VALID,0,VALID,23.8304,VALID,139,VALID,0.373437,
2012-03-13, 00:33:04,VALID,1009.45,VALID,0,VALID,103.718,VALID,0,VALID,23.8304,VALID,139,VALID,0.523438,
2012-03-13, 00:34:04,VALID,1009.41,VALID,0,VALID,103.802,VALID,0.112112,VALID,23.8304,VALID,139,VALID,0.395312,
2012-03-13, 00:35:04,VALID,1009.43,VALID,0,VALID,103.878,VALID,0,VALID,23.8109,VALID,139,VALID,0.689062,
2012-03-13, 00:36:04,VALID,1009.43,VALID,0,VALID,103.947,VALID,0,VALID,23.8127,VALID,140,VALID,0.576953,
2012-03-13, 00:37:04,VALID,1009.43,VALID,0,VALID,104,VALID,0,VALID,23.7914,VALID,140,VALID,0.476953,
2012-03-13, 00:38:04,VALID,1009.43,VALID,0,VALID,104,VALID,0,VALID,23.7914,VALID,122,VALID,0.738672,
2012-03-13, 00:39:04,VALID,1009.4,VALID,0,VALID,104,VALID,0,VALID,23.7896,VALID,139,VALID,0.520703,
2012-03-13, 00:40:04,VALID,1009.37,VALID,0,VALID,104,VALID,0,VALID,23.7914,VALID,186,VALID,0.496484,
2012-03-13, 00:41:04,VALID,1009.37,VALID,0,VALID,104,VALID,0,VALID,23.7914,VALID,185,VALID,0.385547,
2012-03-13, 00:42:04,VALID,1009.36,VALID,0,VALID,104,VALID,0,VALID,23.772,VALID,179,VALID,0.390625,
2012-03-13, 00:43:04,VALID,1009.39,VALID,0,VALID,104,VALID,0,VALID,23.772,VALID,137,VALID,0.74375,
2012-03-13, 00:44:04,VALID,1009.36,VALID,0,VALID,103.954,VALID,0,VALID,23.7525,VALID,129,VALID,0.248047,
2012-03-13, 00:45:04,VALID,1009.36,VALID,0,VALID,103.886,VALID,0,VALID,23.7525,VALID,129,VALID,0.177344,
2012-03-13, 00:46:04,VALID,1009.33,VALID,0,VALID,103.855,VALID,0,VALID,23.772,VALID,131,VALID,0.5625,
2012-03-13, 00:47:04,VALID,1009.29,VALID,0,VALID,103.756,VALID,0,VALID,23.7525,VALID,140,VALID,0.435156,
2012-03-13, 00:48:04,VALID,1009.3,VALID,0,VALID,103.794,VALID,0,VALID,23.772,VALID,140,VALID,0.384766,
2012-03-13, 00:49:04,VALID,1009.31,VALID,0,VALID,103.664,VALID,0,VALID,23.7525,VALID,120,VALID,0.696094,
2012-03-13, 00:50:04,VALID,1009.3,VALID,0,VALID,103.588,VALID,0,VALID,23.7525,VALID,95,VALID,0.660547,
2012-03-13, 00:51:04,VALID,1009.29,VALID,0,VALID,103.649,VALID,0,VALID,23.772,VALID,93,VALID,0,
2012-03-13, 00:52:04,VALID,1009.3,VALID,0,VALID,103.649,VALID,0,VALID,23.772,VALID,93,VALID,0,
2012-03-13, 00:53:04,VALID,1009.27,VALID,0,VALID,103.809,VALID,0,VALID,23.772,VALID,93,VALID,0.282031,
2012-03-13, 00:54:04,VALID,1009.28,VALID,0,VALID,103.802,VALID,0,VALID,23.7525,VALID,36,VALID,0.764453,
2012-03-13, 00:55:04,VALID,1009.28,VALID,0,VALID,103.855,VALID,0,VALID,23.7135,VALID,35,VALID,0.637109,
2012-03-13, 00:56:04,VALID,1009.26,VALID,0,VALID,104,VALID,0,VALID,23.6745,VALID,35,VALID,0.399219,
2012-03-13, 00:57:04,VALID,1009.27,VALID,0,VALID,104,VALID,0,VALID,23.6763,VALID,35,VALID,0.182812,
2012-03-13, 00:58:04,VALID,1009.28,VALID,0,VALID,104,VALID,0,VALID,23.6356,VALID,35,VALID,0.433594,
2012-03-13, 00:59:04,VALID,1009.28,VALID,0,VALID,104,VALID,0,VALID,23.6161,VALID,35,VALID,0.46875,
2012-03-13, 01:00:04,VALID,1009.29,VALID,0,VALID,104,VALID,0,VALID,23.6356,VALID,35,VALID,0.495313,
2012-03-13, 01:01:04,VALID,1009.32,VALID,0,VALID,104,VALID,0,VALID,23.655,VALID,35,VALID,0.650391,
2012-03-13, 01:02:04,VALID,1009.35,VALID,0,VALID,104,VALID,0,VALID,23.655,VALID,26,VALID,0.676562,
2012-03-13, 01:03:04,VALID,1009.36,VALID,0,VALID,104,VALID,0,VALID,23.6568,VALID,26,VALID,0.396094,
2012-03-13, 01:04:04,VALID,1009.35,VALID,0,VALID,104,VALID,0,VALID,23.6179,VALID,26,VALID,0.208594,
2012-03-13, 01:05:04,VALID,1009.37,VALID,0,VALID,104,VALID,0,VALID,23.5966,VALID,26,VALID,0.299219,
2012-03-13, 01:06:04,VALID,1009.4,VALID,0,VALID,104,VALID,0,VALID,23.6373,VALID,26,VALID,0.490625,
2012-03-13, 01:07:04,VALID,1009.39,VALID,0,VALID,104,VALID,0,VALID,23.6161,VALID,26,VALID,0.346484,
2012-03-13, 01:08:04,VALID,1009.38,VALID,0,VALID,104,VALID,0,VALID,23.6373,VALID,26,VALID,0.262891,
2012-03-13, 01:09:04,VALID,1009.38,VALID,0,VALID,104,VALID,0,VALID,23.6179,VALID,26,VALID,0.164844,
2012-03-13, 01:10:04,VALID,1009.35,VALID,0,VALID,104,VALID,0,VALID,23.5948,VALID,26,VALID,0.292188,
2012-03-13, 01:11:04,VALID,1009.39,VALID,0,VALID,104,VALID,0,VALID,23.5948,VALID,26,VALID,0.172656,
2012-03-13, 01:12:04,VALID,1009.39,VALID,0,VALID,104,VALID,0.112112,VALID,23.6356,VALID,27,VALID,0.305859,
2012-03-13, 01:13:04,VALID,1009.42,VALID,0,VALID,104,VALID,0.112112,VALID,23.655,VALID,26,VALID,0.312891,
2012-03-13, 01:14:04,VALID,1009.41,VALID,0,VALID,104,VALID,0.112112,VALID,23.6338,VALID,26,VALID,0.31875,
2012-03-13, 01:15:04,VALID,1009.45,VALID,0,VALID,104,VALID,0.112112,VALID,23.6143,VALID,26,VALID,0.434375,
2012-03-13, 01:16:04,VALID,1009.47,VALID,0,VALID,104,VALID,0.112112,VALID,23.6356,VALID,26,VALID,0.432813,
2012-03-13, 01:17:04,VALID,1009.44,VALID,0,VALID,104,VALID,0.112112,VALID,23.6143,VALID,26,VALID,0.496875,
2012-03-13, 01:18:04,VALID,1009.48,VALID,0,VALID,104,VALID,0.112112,VALID,23.6356,VALID,26,VALID,0.348437,
2012-03-13, 01:19:04,VALID,1009.47,VALID,0,VALID,104,VALID,0.112112,VALID,23.5948,VALID,26,VALID,0.296094,
2012-03-13, 01:20:04,VALID,1009.44,VALID,0,VALID,104,VALID,0.112112,VALID,23.5948,VALID,26,VALID,0.485547,
2012-03-13, 01:21:04,VALID,1009.45,VALID,0,VALID,104,VALID,0.112112,VALID,23.5753,VALID,26,VALID,0.489062,
2012-03-13, 01:22:04,VALID,1009.43,VALID,0,VALID,104,VALID,0.112112,VALID,23.5558,VALID,26,VALID,0.316406,
2012-03-13, 01:23:04,VALID,1009.42,VALID,0,VALID,104,VALID,0.112112,VALID,23.5363,VALID,26,VALID,0.101563,
2012-03-13, 01:24:04,VALID,1009.41,VALID,0,VALID,104,VALID,0.112112,VALID,23.5151,VALID,26,VALID,0.157813,
2012-03-13, 01:25:04,VALID,1009.41,VALID,0,VALID,104,VALID,0,VALID,23.5186,VALID,26,VALID,0.0140625,
2012-03-13, 01:26:04,VALID,1009.38,VALID,0,VALID,104,VALID,0,VALID,23.5186,VALID,26,VALID,0,
2012-03-13, 01:27:04,VALID,1009.4,VALID,0,VALID,104,VALID,0,VALID,23.4992,VALID,26,VALID,0.119922,
2012-03-13, 01:28:04,VALID,1009.39,VALID,0,VALID,104,VALID,0,VALID,23.4797,VALID,27,VALID,0.164063,
2012-03-13, 01:29:04,VALID,1009.38,VALID,0,VALID,104,VALID,0,VALID,23.4797,VALID,26,VALID,0,
2012-03-13, 01:30:04,VALID,1009.38,VALID,0,VALID,104,VALID,0,VALID,23.4602,VALID,27,VALID,0.195703,
2012-03-13, 01:31:04,VALID,1009.4,VALID,0,VALID,104,VALID,0,VALID,23.4602,VALID,26,VALID,0.192578,
2012-03-13, 01:32:04,VALID,1009.37,VALID,0,VALID,104,VALID,0,VALID,23.4602,VALID,27,VALID,0,
2012-03-13, 01:33:04,VALID,1009.39,VALID,0,VALID,104,VALID,0,VALID,23.462,VALID,26,VALID,0.003125,
2012-03-13, 01:34:04,VALID,1009.38,VALID,0,VALID,104,VALID,0,VALID,23.462,VALID,26,VALID,0.0382813,
2012-03-13, 01:35:04,VALID,1009.38,VALID,0,VALID,104,VALID,0,VALID,23.462,VALID,27,VALID,0,
2012-03-13, 01:36:04,VALID,1009.36,VALID,0,VALID,104,VALID,0,VALID,23.4407,VALID,27,VALID,0,
2012-03-13, 01:37:04,VALID,1009.34,VALID,0,VALID,104,VALID,0,VALID,23.4407,VALID,27,VALID,0,
2012-03-13, 01:38:04,VALID,1009.3,VALID,0,VALID,104,VALID,0,VALID,23.462,VALID,26,VALID,0,
2012-03-13, 01:39:04,VALID,1009.26,VALID,0,VALID,104,VALID,0,VALID,23.4425,VALID,27,VALID,0,
2012-03-13, 01:40:04,VALID,1009.22,VALID,0,VALID,104,VALID,0,VALID,23.4212,VALID,27,VALID,0.0351563,
2012-03-13, 01:41:04,VALID,1009.2,VALID,0,VALID,104,VALID,0,VALID,23.4425,VALID,26,VALID,0.191406,
2012-03-13, 01:42:04,VALID,1009.19,VALID,0,VALID,104,VALID,0,VALID,23.4212,VALID,27,VALID,0.306641,
2012-03-13, 01:43:04,VALID,1009.17,VALID,0,VALID,104,VALID,0,VALID,23.4212,VALID,27,VALID,0.351563,
2012-03-13, 01:44:04,VALID,1009.18,VALID,0,VALID,104,VALID,0,VALID,23.4602,VALID,27,VALID,0.135156,
2012-03-13, 01:45:04,VALID,1009.19,VALID,0,VALID,104,VALID,0,VALID,23.462,VALID,27,VALID,0.211328,
2012-03-13, 01:46:04,VALID,1009.19,VALID,0,VALID,104,VALID,0,VALID,23.4602,VALID,26,VALID,0.271484,
2012-03-13, 01:47:04,VALID,1009.17,VALID,0,VALID,104,VALID,0,VALID,23.4407,VALID,27,VALID,0.0636719,
2012-03-13, 01:48:04,VALID,1009.15,VALID,0,VALID,104,VALID,0,VALID,23.4815,VALID,26,VALID,0.00351562,
2012-03-13, 01:49:04,VALID,1009.14,VALID,0,VALID,104,VALID,0,VALID,23.4407,VALID,27,VALID,0,
2012-03-13, 01:50:04,VALID,1009.14,VALID,0,VALID,104,VALID,0,VALID,23.462,VALID,27,VALID,0,
2012-03-13, 01:51:04,VALID,1009.12,VALID,0,VALID,104,VALID,0,VALID,23.4407,VALID,27,VALID,0,
2012-03-13, 01:52:04,VALID,1009.13,VALID,0,VALID,104,VALID,0,VALID,23.4407,VALID,27,VALID,0.0226563,
2012-03-13, 01:53:04,VALID,1009.1,VALID,0,VALID,104,VALID,0,VALID,23.4407,VALID,26,VALID,0.116016,
2012-03-13, 01:54:04,VALID,1009.12,VALID,0,VALID,104,VALID,0,VALID,23.4425,VALID,27,VALID,0,
2012-03-13, 01:55:04,VALID,1009.1,VALID,0,VALID,104,VALID,0,VALID,23.4407,VALID,27,VALID,0,
2012-03-13, 01:56:04,VALID,1009.11,VALID,0,VALID,104,VALID,0,VALID,23.462,VALID,27,VALID,0.394922,
2012-03-13, 01:57:04,VALID,1009.09,VALID,0,VALID,104,VALID,0,VALID,23.462,VALID,27,VALID,0.147656,
2012-03-13, 01:58:04,VALID,1009.11,VALID,0,VALID,104,VALID,0,VALID,23.4212,VALID,27,VALID,0.316797,
2012-03-13, 01:59:04,VALID,1009.1,VALID,0,VALID,104,VALID,0,VALID,23.4212,VALID,27,VALID,0.214062,
2012-03-13, 02:00:04,VALID,1009.09,VALID,0,VALID,104,VALID,0,VALID,23.4425,VALID,27,VALID,0.142969,
2012-03-13, 02:01:04,VALID,1009.09,VALID,0,VALID,104,VALID,0,VALID,23.423,VALID,27,VALID,0.0121094,
2012-03-13, 02:02:04,VALID,1009.05,VALID,0,VALID,104,VALID,0,VALID,23.4035,VALID,27,VALID,0,
2012-03-13, 02:03:04,VALID,1009.06,VALID,0,VALID,104,VALID,0,VALID,23.3823,VALID,27,VALID,0,
2012-03-13, 02:04:04,VALID,1009,VALID,0,VALID,104,VALID,0,VALID,23.423,VALID,27,VALID,0.0972656,
2012-03-13, 02:05:04,VALID,1009.01,VALID,0,VALID,104,VALID,0,VALID,23.423,VALID,27,VALID,0.207422,
2012-03-13, 02:06:04,VALID,1008.98,VALID,0,VALID,104,VALID,0,VALID,23.4035,VALID,27,VALID,0.161719,
2012-03-13, 02:07:04,VALID,1008.95,VALID,0,VALID,104,VALID,0,VALID,23.423,VALID,27,VALID,0.298828,
2012-03-13, 02:08:04,VALID,1008.97,VALID,0,VALID,104,VALID,0,VALID,23.4017,VALID,27,VALID,0.287109,
2012-03-13, 02:09:04,VALID,1008.97,VALID,0,VALID,104,VALID,0,VALID,23.423,VALID,27,VALID,0.0730469,
2012-03-13, 02:10:04,VALID,1008.96,VALID,0,VALID,104,VALID,0,VALID,23.4017,VALID,27,VALID,0,
2012-03-13, 02:11:04,VALID,1008.96,VALID,0,VALID,104,VALID,0,VALID,23.4212,VALID,27,VALID,0.0945313,
2012-03-13, 02:12:04,VALID,1008.97,VALID,0,VALID,104,VALID,0,VALID,23.4425,VALID,27,VALID,0.18125,
2012-03-13, 02:13:04,VALID,1008.96,VALID,0,VALID,104,VALID,0,VALID,23.462,VALID,27,VALID,0.283203,
2012-03-13, 02:14:04,VALID,1008.97,VALID,0,VALID,104,VALID,0,VALID,23.462,VALID,27,VALID,0.06875,
2012-03-13, 02:15:04,VALID,1008.97,VALID,0,VALID,104,VALID,0,VALID,23.4815,VALID,27,VALID,0.291797,
2012-03-13, 02:16:04,VALID,1008.97,VALID,0,VALID,104,VALID,0,VALID,23.462,VALID,27,VALID,0.205859,
2012-03-13, 02:17:04,VALID,1008.98,VALID,0,VALID,104,VALID,0,VALID,23.4407,VALID,27,VALID,0.0246094,
2012-03-13, 02:18:04,VALID,1008.97,VALID,0,VALID,104,VALID,0,VALID,23.4425,VALID,27,VALID,0.246875,
2012-03-13, 02:19:04,VALID,1008.95,VALID,0,VALID,104,VALID,0,VALID,23.4425,VALID,27,VALID,0.223047,
2012-03-13, 02:20:04,VALID,1008.98,VALID,0,VALID,104,VALID,0,VALID,23.4425,VALID,27,VALID,0.285937,
2012-03-13, 02:21:04,VALID,1008.97,VALID,0,VALID,104,VALID,0,VALID,23.462,VALID,27,VALID,0.333203,
2012-03-13, 02:22:04,VALID,1008.96,VALID,0,VALID,104,VALID,0,VALID,23.4212,VALID,27,VALID,0,
2012-03-13, 02:23:04,VALID,1008.97,VALID,0,VALID,104,VALID,0,VALID,23.4407,VALID,27,VALID,0,
2012-03-13, 02:24:04,VALID,1008.97,VALID,0,VALID,104,VALID,0,VALID,23.462,VALID,27,VALID,0,
2012-03-13, 02:25:04,VALID,1008.92,VALID,0,VALID,104,VALID,0,VALID,23.4425,VALID,27,VALID,0,
2012-03-13, 02:26:04,VALID,1008.97,VALID,0,VALID,104,VALID,0,VALID,23.4212,VALID,27,VALID,0,
2012-03-13, 02:27:04,VALID,1008.94,VALID,0,VALID,104,VALID,0,VALID,23.4212,VALID,27,VALID,0,
2012-03-13, 02:28:04,VALID,1008.95,VALID,0,VALID,104,VALID,0,VALID,23.423,VALID,27,VALID,0,
2012-03-13, 02:29:04,VALID,1008.96,VALID,0,VALID,104,VALID,0,VALID,23.3823,VALID,27,VALID,0,
2012-03-13, 02:30:04,VALID,1008.96,VALID,0,VALID,104,VALID,0,VALID,23.4017,VALID,27,VALID,0,
2012-03-13, 02:31:04,VALID,1008.98,VALID,0,VALID,104,VALID,0,VALID,23.3823,VALID,27,VALID,0,
2012-03-13, 02:32:04,VALID,1008.99,VALID,0,VALID,104,VALID,0,VALID,23.4035,VALID,27,VALID,0.361328,
2012-03-13, 02:33:04,VALID,1009,VALID,0,VALID,104,VALID,0,VALID,23.423,VALID,27,VALID,0.223047,
2012-03-13, 02:34:04,VALID,1009.03,VALID,0,VALID,104,VALID,0,VALID,23.4035,VALID,27,VALID,0.203516,
2012-03-13, 02:35:04,VALID,1009.05,VALID,0,VALID,104,VALID,0,VALID,23.4017,VALID,27,VALID,0.187891,
2012-03-13, 02:36:04,VALID,1009.07,VALID,0,VALID,104,VALID,0,VALID,23.4017,VALID,27,VALID,0,
2012-03-13, 02:37:04,VALID,1009.05,VALID,0,VALID,104,VALID,0,VALID,23.4017,VALID,27,VALID,0,
2012-03-13, 02:38:04,VALID,1009.04,VALID,0,VALID,104,VALID,0,VALID,23.423,VALID,27,VALID,0,
2012-03-13, 02:39:04,VALID,1009.03,VALID,0,VALID,104,VALID,0,VALID,23.423,VALID,27,VALID,0,
2012-03-13, 02:40:04,VALID,1009.01,VALID,0,VALID,104,VALID,0,VALID,23.4407,VALID,27,VALID,0,
2012-03-13, 02:41:04,VALID,1008.99,VALID,0,VALID,104,VALID,0.112112,VALID,23.4407,VALID,27,VALID,0,
2012-03-13, 02:42:04,VALID,1008.98,VALID,0,VALID,104,VALID,0,VALID,23.4602,VALID,27,VALID,0.240625,
2012-03-13, 02:43:04,VALID,1008.96,VALID,0,VALID,104,VALID,0,VALID,23.4407,VALID,27,VALID,0.203125,
2012-03-13, 02:44:04,VALID,1008.95,VALID,0,VALID,104,VALID,0,VALID,23.4407,VALID,27,VALID,0.183984,
2012-03-13, 02:45:04,VALID,1008.92,VALID,0,VALID,104,VALID,0.112112,VALID,23.4194,VALID,27,VALID,0.139844,
2012-03-13, 02:46:04,VALID,1008.92,VALID,0,VALID,104,VALID,0,VALID,23.4407,VALID,27,VALID,0.304297,
2012-03-13, 02:47:04,VALID,1008.88,VALID,0,VALID,104,VALID,0.112112,VALID,23.4212,VALID,27,VALID,0.359375,
2012-03-13, 02:48:04,VALID,1008.88,VALID,0,VALID,104,VALID,0.112112,VALID,23.4,VALID,27,VALID,0.535937,
2012-03-13, 02:49:04,VALID,1008.87,VALID,0,VALID,104,VALID,0,VALID,23.3805,VALID,27,VALID,0.309766,
2012-03-13, 02:50:04,VALID,1008.86,VALID,0,VALID,104,VALID,0,VALID,23.3805,VALID,27,VALID,0.216406,
2012-03-13, 02:51:04,VALID,1008.84,VALID,0,VALID,104,VALID,0.112112,VALID,23.3823,VALID,27,VALID,0.279297,
2012-03-13, 02:52:04,VALID,1008.82,VALID,0,VALID,104,VALID,0.112112,VALID,23.361,VALID,27,VALID,0.156641,
2012-03-13, 02:53:04,VALID,1008.84,VALID,0,VALID,104,VALID,0.112112,VALID,23.3415,VALID,27,VALID,0.14375,
2012-03-13, 02:54:04,VALID,1008.8,VALID,0,VALID,104,VALID,0,VALID,23.3433,VALID,27,VALID,0.277734,
2012-03-13, 02:55:04,VALID,1008.82,VALID,0,VALID,104,VALID,0,VALID,23.3043,VALID,27,VALID,0.354297,
2012-03-13, 02:56:04,VALID,1008.85,VALID,0,VALID,104,VALID,0,VALID,23.3061,VALID,23,VALID,0.584375,
2012-03-13, 02:57:04,VALID,1008.88,VALID,0,VALID,104,VALID,0,VALID,23.2459,VALID,28,VALID,0.294531,
2012-03-13, 02:58:04,VALID,1008.91,VALID,0,VALID,104,VALID,0,VALID,23.2654,VALID,29,VALID,0.185937,
2012-03-13, 02:59:04,VALID,1008.95,VALID,0,VALID,104,VALID,0,VALID,23.2459,VALID,29,VALID,0.329297,
2012-03-13, 03:00:04,VALID,1008.95,VALID,0,VALID,104,VALID,0,VALID,23.2459,VALID,27,VALID,0.426172,
2012-03-13, 03:01:04,VALID,1008.96,VALID,0,VALID,104,VALID,0,VALID,23.2459,VALID,25,VALID,0.0117188,
2012-03-13, 03:02:04,VALID,1008.95,VALID,0,VALID,104,VALID,0,VALID,23.2459,VALID,25,VALID,0.0960938,
2012-03-13, 03:03:04,VALID,1008.93,VALID,0,VALID,104,VALID,0,VALID,23.2654,VALID,25,VALID,0.239453,
2012-03-13, 03:04:04,VALID,1008.94,VALID,0,VALID,104,VALID,0,VALID,23.2264,VALID,25,VALID,0,
2012-03-13, 03:05:04,VALID,1008.93,VALID,0,VALID,104,VALID,0,VALID,23.2069,VALID,25,VALID,0.171484,
2012-03-13, 03:06:04,VALID,1008.89,VALID,0,VALID,104,VALID,0,VALID,23.2069,VALID,25,VALID,0.133984,
2012-03-13, 03:07:04,VALID,1008.87,VALID,0,VALID,104,VALID,0,VALID,23.2282,VALID,25,VALID,0.326953,
2012-03-13, 03:08:04,VALID,1008.87,VALID,0,VALID,104,VALID,0,VALID,23.2069,VALID,25,VALID,0.00195313,
2012-03-13, 03:09:04,VALID,1008.88,VALID,0,VALID,104,VALID,0,VALID,23.1874,VALID,25,VALID,0.189453,
2012-03-13, 03:10:04,VALID,1008.91,VALID,0,VALID,104,VALID,0,VALID,23.2069,VALID,25,VALID,0.262109,
2012-03-13, 03:11:04,VALID,1008.9,VALID,0,VALID,104,VALID,0,VALID,23.2069,VALID,30,VALID,0.704687,
2012-03-13, 03:12:04,VALID,1008.89,VALID,0,VALID,104,VALID,0,VALID,23.2069,VALID,40,VALID,0.6875,
2012-03-13, 03:13:04,VALID,1008.88,VALID,0,VALID,104,VALID,0,VALID,23.2282,VALID,41,VALID,0.607813,
2012-03-13, 03:14:04,VALID,1008.88,VALID,0,VALID,104,VALID,0,VALID,23.2282,VALID,41,VALID,0.498437,
2012-03-13, 03:15:04,VALID,1008.87,VALID,0,VALID,104,VALID,0,VALID,23.2264,VALID,41,VALID,0.535937,
2012-03-13, 03:16:04,VALID,1008.86,VALID,0,VALID,104,VALID,0,VALID,23.2476,VALID,47,VALID,0.0773437,
2012-03-13, 03:17:04,VALID,1008.83,VALID,0,VALID,104,VALID,0,VALID,23.2246,VALID,47,VALID,0.176563,
2012-03-13, 03:18:04,VALID,1008.81,VALID,0,VALID,104,VALID,0,VALID,23.2459,VALID,47,VALID,0,
2012-03-13, 03:19:04,VALID,1008.78,VALID,0,VALID,104,VALID,0,VALID,23.2264,VALID,47,VALID,0,
2012-03-13, 03:20:04,VALID,1008.78,VALID,0,VALID,104,VALID,0,VALID,23.2459,VALID,47,VALID,0.0945313,
2012-03-13, 03:21:04,VALID,1008.78,VALID,0,VALID,104,VALID,0,VALID,23.2459,VALID,47,VALID,0.00507812,
2012-03-13, 03:22:04,VALID,1008.75,VALID,0,VALID,104,VALID,0,VALID,23.2459,VALID,47,VALID,0,
2012-03-13, 03:23:04,VALID,1008.77,VALID,0,VALID,104,VALID,0,VALID,23.2459,VALID,47,VALID,0.0570313,
2012-03-13, 03:24:04,VALID,1008.81,VALID,0,VALID,104,VALID,0,VALID,23.2264,VALID,47,VALID,0.123828,
2012-03-13, 03:25:04,VALID,1008.81,VALID,0,VALID,104,VALID,0,VALID,23.2264,VALID,47,VALID,0.520312,
2012-03-13, 03:26:04,VALID,1008.88,VALID,0,VALID,104,VALID,0,VALID,23.2264,VALID,47,VALID,0.675391,
2012-03-13, 03:27:04,VALID,1008.89,VALID,0,VALID,104,VALID,0,VALID,23.2264,VALID,47,VALID,0.565234,
2012-03-13, 03:28:04,VALID,1008.93,VALID,0,VALID,104,VALID,0,VALID,23.2069,VALID,47,VALID,0.523047,
2012-03-13, 03:29:04,VALID,1008.96,VALID,0,VALID,104,VALID,0,VALID,23.2264,VALID,47,VALID,0.0492188,
2012-03-13, 03:30:04,VALID,1008.94,VALID,0,VALID,104,VALID,0.112112,VALID,23.2264,VALID,47,VALID,0.384375,
2012-03-13, 03:31:04,VALID,1008.96,VALID,0,VALID,104,VALID,0,VALID,23.2069,VALID,47,VALID,0,
2012-03-13, 03:32:04,VALID,1008.95,VALID,0,VALID,104,VALID,0,VALID,23.2069,VALID,45,VALID,0.360156,
2012-03-13, 03:33:04,VALID,1008.96,VALID,0,VALID,104,VALID,0,VALID,23.1874,VALID,45,VALID,0.202344,
2012-03-13, 03:34:04,VALID,1008.98,VALID,0,VALID,104,VALID,0,VALID,23.1874,VALID,45,VALID,0.332422,
2012-03-13, 03:35:04,VALID,1008.94,VALID,0,VALID,104,VALID,0,VALID,23.2087,VALID,45,VALID,0.113672,
2012-03-13, 03:36:04,VALID,1008.95,VALID,0,VALID,104,VALID,0,VALID,23.1892,VALID,45,VALID,0.274609,
2012-03-13, 03:37:04,VALID,1008.94,VALID,0,VALID,104,VALID,0,VALID,23.1874,VALID,45,VALID,0.395312,
2012-03-13, 03:38:04,VALID,1008.93,VALID,0,VALID,104,VALID,0,VALID,23.1874,VALID,45,VALID,0.396875,
2012-03-13, 03:39:04,VALID,1008.9,VALID,0,VALID,104,VALID,0,VALID,23.1892,VALID,47,VALID,0.352734,
2012-03-13, 03:40:04,VALID,1008.89,VALID,0,VALID,104,VALID,0.112112,VALID,23.1857,VALID,50,VALID,0.595703,
2012-03-13, 03:41:04,VALID,1008.9,VALID,0,VALID,104,VALID,0.112112,VALID,23.1857,VALID,51,VALID,0.468359,
2012-03-13, 03:42:04,VALID,1008.9,VALID,0,VALID,104,VALID,0.112112,VALID,23.2051,VALID,114,VALID,0.705078,
2012-03-13, 03:43:04,VALID,1008.89,VALID,0,VALID,104,VALID,0.112112,VALID,23.2051,VALID,76,VALID,0.844531,
2012-03-13, 03:44:04,VALID,1008.91,VALID,0,VALID,104,VALID,0.112112,VALID,23.2264,VALID,75,VALID,0.775,
2012-03-13, 03:45:04,VALID,1008.87,VALID,0,VALID,104,VALID,0.112112,VALID,23.2459,VALID,75,VALID,0.357031,
2012-03-13, 03:46:04,VALID,1008.88,VALID,0,VALID,104,VALID,0.112112,VALID,23.2051,VALID,75,VALID,0.366797,
2012-03-13, 03:47:04,VALID,1008.87,VALID,0,VALID,104,VALID,0.112112,VALID,23.2051,VALID,75,VALID,0.574609,
2012-03-13, 03:48:04,VALID,1008.86,VALID,0,VALID,104,VALID,0,VALID,23.2476,VALID,63,VALID,0.564453,
2012-03-13, 03:49:04,VALID,1008.88,VALID,0,VALID,104,VALID,0,VALID,23.2069,VALID,63,VALID,0.591016,
2012-03-13, 03:50:04,VALID,1008.85,VALID,0,VALID,104,VALID,0,VALID,23.2264,VALID,63,VALID,0.353125,
2012-03-13, 03:51:04,VALID,1008.89,VALID,0,VALID,104,VALID,0,VALID,23.2069,VALID,77,VALID,0.659375,
2012-03-13, 03:52:04,VALID,1008.88,VALID,0,VALID,104,VALID,0,VALID,23.2069,VALID,78,VALID,0.372266,
2012-03-13, 03:53:04,VALID,1008.91,VALID,0,VALID,104,VALID,0,VALID,23.2069,VALID,78,VALID,0.498047,